| time (UTC) | temp F | wind direction | speed knots | gust knots | rain 1hr in | rain 24hr in | rain mn in | humidity % | barometer mb |
| 20260504120234 | 39 | 263 | 0.0 | 1.7 | 0.00 | 0.00 | 0.00 | 87 | 1015.5 |
| 20260504110651 | 36 | 113 | 0.0 | 1.7 | 0.00 | 0.00 | 0.00 | 86 | 1015.5 |
| 20260504100413 | 36 | 57 | 0.0 | 2.6 | 0.00 | 0.00 | 0.00 | 85 | 1015.3 |
| 20260504081710 | 36 | 43 | 0.0 | 0.9 | 0.00 | 0.00 | 0.00 | 84 | 1015.3 |
| 20260504081157 | 36 | 43 | 0.0 | 0.9 | 0.00 | 0.00 | 0.00 | 84 | 1015.4 |
| 20260504081105 | 36 | 43 | 0.0 | 0.0 | 0.00 | 0.00 | 0.00 | 84 | 1015.4 |
| 20260504080714 | 36 | 43 | 0.0 | 0.0 | 0.00 | 0.00 | 0.00 | 84 | 1015.4 |
| 20260504070133 | 37 | 43 | 0.0 | 0.0 | 0.00 | 0.00 | 0.00 | 83 | 1015.3 |
| 20260504060127 | 39 | 43 | 0.0 | 0.0 | 0.00 | 0.00 | 0.00 | 81 | 1015.3 |
| 20260504050629 | 41 | 43 | 0.0 | 0.0 | 0.00 | 0.00 | 0.00 | 79 | 1015.5 |
| 20260504050122 | 41 | 43 | 0.0 | 0.0 | 0.00 | 0.00 | 0.00 | 79 | 1015.5 |
| 20260504045624 | 41 | 43 | 0.0 | 0.0 | 0.00 | 0.00 | 0.00 | 80 | 1015.5 |
| 20260504045111 | 41 | 43 | 0.0 | 0.0 | 0.00 | 0.00 | 0.00 | 80 | 1015.5 |
| 20260504044605 | 41 | 43 | 0.0 | 0.0 | 0.00 | 0.00 | 0.00 | 80 | 1015.6 |
| 20260504044101 | 41 | 43 | 0.0 | 0.0 | 0.00 | 0.00 | 0.00 | 80 | 1015.5 |
| 20260504043847 | 41 | 43 | 0.0 | 0.0 | 0.00 | 0.00 | 0.00 | 79 | 1015.4 |
| 20260504043620 | 41 | 43 | 0.0 | 0.0 | 0.00 | 0.00 | 0.00 | 79 | 1015.5 |
| 20260504042541 | 41 | 43 | 0.0 | 0.0 | 0.00 | 0.00 | 0.00 | 79 | 1015.4 |
| 20260504042435 | 42 | 43 | 0.0 | 0.9 | 0.00 | 0.00 | 0.00 | 79 | 1015.4 |
| 20260504042106 | 42 | 43 | 0.0 | 0.9 | 0.00 | 0.00 | 0.00 | 79 | 1015.4 |
| 20260504041037 | 42 | 12 | 0.0 | 0.0 | 0.00 | 0.00 | 0.00 | 78 | 1015.4 |
| 20260504040521 | 42 | 12 | 0.0 | 0.0 | 0.00 | 0.00 | 0.00 | 77 | 1015.4 |
| 20260504040011 | 43 | 12 | 0.0 | 0.0 | 0.00 | 0.00 | 0.00 | 77 | 1015.5 |
| 20260504035513 | 43 | 12 | 0.0 | 0.0 | 0.00 | 0.00 | 0.00 | 76 | 1015.5 |
| 20260504035002 | 43 | 12 | 0.0 | 0.0 | 0.00 | 0.00 | 0.00 | 76 | 1015.6 |
| 20260504034451 | 44 | 12 | 0.0 | 0.0 | 0.00 | 0.00 | 0.00 | 75 | 1015.5 |
| 20260504033948 | 44 | 12 | 0.0 | 0.9 | 0.00 | 0.00 | 0.00 | 75 | 1015.5 |
| 20260504033447 | 44 | 11 | 0.0 | 0.9 | 0.00 | 0.00 | 0.00 | 75 | 1015.4 |
| 20260504032959 | 44 | 11 | 0.0 | 0.0 | 0.00 | 0.00 | 0.00 | 75 | 1015.4 |
| 20260504032501 | 44 | 11 | 0.0 | 0.0 | 0.00 | 0.00 | 0.00 | 74 | 1015.4 |
| 20260504031952 | 44 | 11 | 0.0 | 0.0 | 0.00 | 0.00 | 0.00 | 74 | 1015.4 |
| 20260504031443 | 45 | 11 | 0.0 | 0.0 | 0.00 | 0.00 | 0.00 | 73 | 1015.5 |
| 20260504030928 | 45 | 11 | 0.0 | 0.0 | 0.00 | 0.00 | 0.00 | 74 | 1015.5 |
| 20260504030410 | 45 | 11 | 0.0 | 0.0 | 0.00 | 0.00 | 0.00 | 74 | 1015.5 |
| 20260504025907 | 45 | 11 | 0.0 | 0.0 | 0.00 | 0.00 | 0.00 | 72 | 1015.6 |
| 20260504025359 | 46 | 11 | 0.0 | 0.0 | 0.00 | 0.00 | 0.00 | 70 | 1015.6 |
| 20260504024901 | 47 | 11 | 0.0 | 0.0 | 0.00 | 0.00 | 0.00 | 68 | 1015.6 |
| 20260504024405 | 48 | 11 | 0.0 | 0.0 | 0.00 | 0.00 | 0.00 | 67 | 1015.6 |
| 20260504023840 | 48 | 11 | 0.0 | 0.9 | 0.00 | 0.00 | 0.00 | 68 | 1015.5 |
| 20260504023335 | 48 | 11 | 0.0 | 1.7 | 0.00 | 0.00 | 0.00 | 66 | 1015.4 |
| 20260504022915 | 49 | 29 | 0.9 | 1.7 | 0.00 | 0.00 | 0.00 | 65 | 1015.2 |
| 20260504022832 | 48 | 11 | 0.0 | 1.7 | 0.00 | 0.00 | 0.00 | 65 | 1015.3 |
| 20260504022812 | 50 | 5 | 0.9 | 3.5 | 0.00 | 0.00 | 0.00 | 61 | 1015.0 |
| 20260504022350 | 49 | 29 | 0.0 | 0.9 | 0.00 | 0.00 | 0.00 | 66 | 1015.3 |
| 20260504021754 | 52 | 349 | 0.0 | 0.0 | 0.00 | 0.00 | 0.00 | 57 | 1014.8 |
| 20260504021735 | 52 | 349 | 0.0 | 0.0 | 0.00 | 0.00 | 0.00 | 57 | 1014.8 |
| 20260504021332 | 49 | 29 | 0.9 | 1.7 | 0.00 | 0.00 | 0.00 | 62 | 1015.2 |
| 20260504020846 | 50 | 5 | 0.0 | 1.7 | 0.00 | 0.00 | 0.00 | 62 | 1015.3 |
| 20260504020357 | 50 | 5 | 0.0 | 0.0 | 0.00 | 0.00 | 0.00 | 61 | 1015.3 |
| 20260504015918 | 50 | 5 | 0.0 | 0.9 | 0.00 | 0.00 | 0.00 | 61 | 1015.2 |
| 20260504014854 | 51 | 5 | 0.9 | 3.5 | 0.00 | 0.00 | 0.00 | 59 | 1014.9 |
| 20260504013224 | 53 | 349 | 0.0 | 0.0 | 0.00 | 0.00 | 0.00 | 56 | 1014.6 |
| 20260504012727 | 53 | 349 | 0.0 | 0.0 | 0.00 | 0.00 | 0.00 | 56 | 1014.6 |
| 20260504012211 | 53 | 349 | 0.0 | 0.0 | 0.00 | 0.00 | 0.00 | 54 | 1014.6 |
| 20260504011836 | 57 | 346 | 0.9 | 1.7 | 0.00 | 0.00 | 0.00 | 47 | 1014.2 |
| 20260504011707 | 54 | 349 | 0.0 | 0.0 | 0.00 | 0.00 | 0.00 | 53 | 1014.6 |
| 20260504011236 | 54 | 349 | 0.0 | 0.0 | 0.00 | 0.00 | 0.00 | 51 | 1014.4 |
| 20260504010758 | 55 | 349 | 0.0 | 0.0 | 0.00 | 0.00 | 0.00 | 50 | 1014.3 |
| 20260504010156 | 55 | 349 | 0.0 | 0.0 | 0.00 | 0.00 | 0.00 | 51 | 1014.4 |
| 20260504005717 | 55 | 349 | 0.0 | 1.7 | 0.00 | 0.00 | 0.00 | 50 | 1014.3 |
| 20260504004842 | 59 | 133 | 0.0 | 0.9 | 0.00 | 0.00 | 0.00 | 41 | 1014.0 |
| 20260504004806 | 60 | 133 | 0.0 | 0.0 | 0.00 | 0.00 | 0.00 | 40 | 1014.0 |
| 20260504004633 | 57 | 346 | 0.0 | 1.7 | 0.00 | 0.00 | 0.00 | 47 | 1014.2 |
| 20260504004141 | 58 | 215 | 0.0 | 0.9 | 0.00 | 0.00 | 0.00 | 44 | 1014.1 |
| 20260504003659 | 58 | 215 | 0.0 | 1.7 | 0.00 | 0.00 | 0.00 | 44 | 1014.1 |
| 20260504003227 | 58 | 215 | 0.9 | 1.7 | 0.00 | 0.00 | 0.00 | 44 | 1014.1 |
| 20260504002144 | 60 | 133 | 0.0 | 0.9 | 0.00 | 0.00 | 0.00 | 40 | 1014.1 |
| 20260504001109 | 60 | 133 | 0.0 | 0.0 | 0.00 | 0.00 | 0.00 | 38 | 1014.0 |
| 20260504000600 | 61 | 133 | 0.0 | 1.7 | 0.00 | 0.00 | 0.00 | 39 | 1013.9 |
| 20260504000112 | 61 | 133 | 0.0 | 1.7 | 0.00 | 0.00 | 0.00 | 39 | 1014.0 |
| 20260503235557 | 61 | 133 | 0.9 | 2.6 | 0.00 | 0.00 | 0.00 | 40 | 1013.9 |
| 20260503235057 | 61 | 148 | 1.7 | 6.1 | 0.00 | 0.00 | 0.00 | 38 | 1013.7 |
| 20260503234557 | 61 | 175 | 0.9 | 6.1 | 0.00 | 0.00 | 0.00 | 37 | 1013.7 |
| 20260503234053 | 62 | 160 | 0.0 | 4.3 | 0.00 | 0.00 | 0.00 | 34 | 1013.7 |
| 20260503233557 | 62 | 169 | 0.0 | 0.9 | 0.00 | 0.00 | 0.00 | 34 | 1013.6 |
| 20260503233053 | 62 | 169 | 0.0 | 3.5 | 0.00 | 0.00 | 0.00 | 33 | 1013.5 |
| 20260503232557 | 62 | 169 | 0.0 | 3.5 | 0.00 | 0.00 | 0.00 | 34 | 1013.5 |
| 20260503232101 | 63 | 184 | 0.0 | 0.9 | 0.00 | 0.00 | 0.00 | 33 | 1013.5 |
| 20260503231558 | 63 | 184 | 0.0 | 1.7 | 0.00 | 0.00 | 0.00 | 33 | 1013.5 |
| 20260503231056 | 63 | 184 | 0.9 | 1.7 | 0.00 | 0.00 | 0.00 | 33 | 1013.5 |
| 20260503230557 | 63 | 177 | 0.9 | 4.3 | 0.00 | 0.00 | 0.00 | 32 | 1013.5 |
| 20260503230533 | 65 | 222 | 0.9 | 3.5 | 0.00 | 0.00 | 0.00 | 32 | 1013.5 |
| 20260503230115 | 63 | 177 | 1.7 | 4.3 | 0.00 | 0.00 | 0.00 | 32 | 1013.5 |
| 20260503225636 | 64 | 157 | 1.7 | 4.3 | 0.00 | 0.00 | 0.00 | 33 | 1013.5 |
| 20260503224550 | 64 | 172 | 0.9 | 3.5 | 0.00 | 0.00 | 0.00 | 32 | 1013.6 |
| 20260503224054 | 65 | 177 | 0.9 | 3.5 | 0.00 | 0.00 | 0.00 | 33 | 1013.6 |
| 20260503223751 | 67 | 206 | 0.9 | 4.3 | 0.00 | 0.00 | 0.00 | 32 | 1013.6 |
| 20260503223553 | 65 | 166 | 0.9 | 3.5 | 0.00 | 0.00 | 0.00 | 30 | 1013.6 |
| 20260503223112 | 66 | 175 | 0.9 | 3.5 | 0.00 | 0.00 | 0.00 | 29 | 1013.6 |
| 20260503222631 | 66 | 173 | 1.7 | 3.5 | 0.00 | 0.00 | 0.00 | 32 | 1013.5 |
| 20260503222139 | 66 | 180 | 1.7 | 4.3 | 0.00 | 0.00 | 0.00 | 31 | 1013.6 |
| 20260503221554 | 67 | 187 | 1.7 | 4.3 | 0.00 | 0.00 | 0.00 | 29 | 1013.6 |
| 20260503221119 | 67 | 198 | 1.7 | 3.5 | 0.00 | 0.00 | 0.00 | 29 | 1013.6 |
| 20260503220643 | 67 | 202 | 0.9 | 3.5 | 0.00 | 0.00 | 0.00 | 29 | 1013.6 |
| 20260503215550 | 67 | 171 | 1.7 | 4.3 | 0.00 | 0.00 | 0.00 | 29 | 1013.7 |
| 20260503215052 | 68 | 147 | 1.7 | 5.2 | 0.00 | 0.00 | 0.00 | 27 | 1013.7 |
| 20260503214605 | 68 | 201 | 1.7 | 5.2 | 0.00 | 0.00 | 0.00 | 28 | 1013.9 |
| 20260503214049 | 68 | 197 | 1.7 | 5.2 | 0.00 | 0.00 | 0.00 | 33 | 1014.0 |
| 20260503213546 | 68 | 252 | 1.7 | 6.1 | 0.00 | 0.00 | 0.00 | 30 | 1014.0 |
| 20260503213457 | 68 | 238 | 2.6 | 7.8 | 0.00 | 0.00 | 0.00 | 30 | 1014.1 |
| 20260503213056 | 68 | 234 | 1.7 | 6.1 | 0.00 | 0.00 | 0.00 | 31 | 1014.1 |
| 20260503212613 | 68 | 237 | 2.6 | 7.0 | 0.00 | 0.00 | 0.00 | 28 | 1014.1 |
| 20260503212128 | 68 | 228 | 2.6 | 7.0 | 0.00 | 0.00 | 0.00 | 27 | 1014.1 |
| 20260503211038 | 68 | 246 | 1.7 | 7.8 | 0.00 | 0.00 | 0.00 | 28 | 1014.2 |
| 20260503210541 | 67 | 307 | 1.7 | 5.2 | 0.00 | 0.00 | 0.00 | 29 | 1014.3 |
| 20260503210036 | 67 | 231 | 2.6 | 8.7 | 0.00 | 0.00 | 0.00 | 29 | 1014.4 |
| 20260503205536 | 67 | 246 | 2.6 | 8.7 | 0.00 | 0.00 | 0.00 | 29 | 1014.4 |
| 20260503205031 | 67 | 45 | 2.6 | 7.0 | 0.00 | 0.00 | 0.00 | 28 | 1014.4 |
| 20260503204537 | 67 | 329 | 3.5 | 10.4 | 0.00 | 0.00 | 0.00 | 31 | 1014.5 |
| 20260503204037 | 67 | 310 | 3.5 | 10.4 | 0.00 | 0.00 | 0.00 | 28 | 1014.5 |
| 20260503203537 | 67 | 322 | 1.7 | 6.1 | 0.00 | 0.00 | 0.00 | 31 | 1014.6 |
| 20260503203336 | 66 | 40 | 2.6 | 7.0 | 0.00 | 0.00 | 0.00 | 32 | 1015.1 |
| 20260503203034 | 66 | 242 | 1.7 | 6.1 | 0.00 | 0.00 | 0.00 | 29 | 1014.5 |
| 20260503203021 | 67 | 32 | 1.7 | 7.0 | 0.00 | 0.00 | 0.00 | 30 | 1015.2 |
| 20260503202549 | 67 | 292 | 1.7 | 6.1 | 0.00 | 0.00 | 0.00 | 33 | 1014.7 |
| 20260503202058 | 66 | 162 | 2.6 | 11.3 | 0.00 | 0.00 | 0.00 | 30 | 1014.7 |
| 20260503201609 | 66 | 319 | 2.6 | 11.3 | 0.00 | 0.00 | 0.00 | 29 | 1014.8 |
| 20260503201130 | 66 | 306 | 2.6 | 8.7 | 0.00 | 0.00 | 0.00 | 32 | 1014.9 |
| 20260503200633 | 66 | 0 | 2.6 | 8.7 | 0.00 | 0.00 | 0.00 | 30 | 1014.9 |
| 20260503200138 | 66 | 309 | 2.6 | 7.8 | 0.00 | 0.00 | 0.00 | 32 | 1015.1 |
| 20260503194656 | 67 | 299 | 2.6 | 7.8 | 0.00 | 0.00 | 0.00 | 25 | 1015.4 |
| 20260503194509 | 67 | 244 | 2.6 | 10.4 | 0.00 | 0.00 | 0.00 | 30 | 1015.2 |
| 20260503194024 | 67 | 290 | 3.5 | 10.4 | 0.00 | 0.00 | 0.00 | 31 | 1015.3 |
| 20260503193528 | 67 | 286 | 2.6 | 6.1 | 0.00 | 0.00 | 0.00 | 31 | 1015.3 |
| 20260503192443 | 67 | 306 | 1.7 | 7.8 | 0.00 | 0.00 | 0.00 | 31 | 1015.5 |
| 20260503191934 | 67 | 304 | 1.7 | 7.8 | 0.00 | 0.00 | 0.00 | 31 | 1015.6 |
| 20260503191921 | 66 | 299 | 2.6 | 10.4 | 0.00 | 0.00 | 0.00 | 28 | 1015.9 |
| 20260503191813 | 65 | 247 | 2.6 | 7.0 | 0.00 | 0.00 | 0.00 | 34 | 1016.0 |
| 20260503191438 | 67 | 287 | 2.6 | 7.8 | 0.00 | 0.00 | 0.00 | 34 | 1015.7 |
| 20260503190953 | 66 | 309 | 2.6 | 7.0 | 0.00 | 0.00 | 0.00 | 27 | 1015.7 |
| 20260503190508 | 66 | 302 | 2.6 | 10.4 | 0.00 | 0.00 | 0.00 | 30 | 1015.8 |
| 20260503185446 | 66 | 177 | 2.6 | 7.0 | 0.00 | 0.00 | 0.00 | 35 | 1015.9 |
| 20260503184410 | 64 | 271 | 1.7 | 6.1 | 0.00 | 0.00 | 0.00 | 37 | 1016.0 |
| 20260503183906 | 63 | 307 | 2.6 | 7.8 | 0.00 | 0.00 | 0.00 | 34 | 1016.1 |
| 20260503183413 | 62 | 140 | 3.5 | 9.6 | 0.00 | 0.00 | 0.00 | 28 | 1016.1 |
| 20260503182908 | 63 | 348 | 3.5 | 9.6 | 0.00 | 0.00 | 0.00 | 28 | 1016.3 |
| 20260503182613 | 62 | 311 | 1.7 | 6.1 | 0.00 | 0.00 | 0.00 | 31 | 1016.8 |
| 20260503182512 | 63 | 341 | 1.7 | 6.1 | 0.00 | 0.00 | 0.00 | 30 | 1017.0 |
| 20260503182410 | 64 | 344 | 3.5 | 10.4 | 0.00 | 0.00 | 0.00 | 33 | 1016.4 |
| 20260503182305 | 63 | 259 | 1.7 | 6.1 | 0.00 | 0.00 | 0.00 | 37 | 1017.1 |
| 20260503181922 | 64 | 324 | 3.5 | 10.4 | 0.00 | 0.00 | 0.00 | 31 | 1016.5 |
| 20260503181436 | 63 | 311 | 2.6 | 7.8 | 0.00 | 0.00 | 0.00 | 30 | 1016.5 |
| 20260503180958 | 63 | 327 | 2.6 | 7.8 | 0.00 | 0.00 | 0.00 | 31 | 1016.7 |
| 20260503180516 | 62 | 304 | 3.5 | 8.7 | 0.00 | 0.00 | 0.00 | 35 | 1016.8 |
| 20260503180038 | 62 | 351 | 2.6 | 11.3 | 0.00 | 0.00 | 0.00 | 31 | 1016.8 |
| 20260503175555 | 62 | 339 | 1.7 | 11.3 | 0.00 | 0.00 | 0.00 | 32 | 1016.8 |
| 20260503173404 | 62 | 202 | 1.7 | 7.0 | 0.00 | 0.00 | 0.00 | 38 | 1017.0 |
| 20260503172859 | 62 | 176 | 2.6 | 7.0 | 0.00 | 0.00 | 0.00 | 41 | 1017.1 |
| 20260503172350 | 62 | 268 | 2.6 | 7.8 | 0.00 | 0.00 | 0.00 | 34 | 1017.3 |
| 20260503171853 | 61 | 350 | 1.7 | 7.8 | 0.00 | 0.00 | 0.00 | 37 | 1017.3 |
| 20260503171342 | 61 | 298 | 2.6 | 6.1 | 0.00 | 0.00 | 0.00 | 34 | 1017.4 |
| 20260503170833 | 60 | 297 | 2.6 | 8.7 | 0.00 | 0.00 | 0.00 | 38 | 1017.5 |
| 20260503170545 | 60 | 237 | 2.6 | 8.7 | 0.00 | 0.00 | 0.00 | 38 | 1017.7 |
| 20260503170338 | 60 | 208 | 2.6 | 8.7 | 0.00 | 0.00 | 0.00 | 38 | 1017.5 |
| 20260503150806 | 55 | 275 | 2.6 | 12.2 | 0.00 | 0.00 | 0.00 | 40 | 1018.7 |
| 20260503150259 | 55 | 224 | 3.5 | 9.6 | 0.00 | 0.00 | 0.00 | 46 | 1018.7 |
| 20260503131124 | 45 | 273 | 3.5 | 8.7 | 0.00 | 0.00 | 0.00 | 62 | 1018.5 |
| 20260503130754 | 46 | 5 | 4.3 | 9.6 | 0.00 | 0.00 | 0.00 | 57 | 1018.5 |